Humidity-temperature Sensor

Selected Measurement Type: Air Temperature

 
Air Temperature [°C]     6 entries per hour
Showing data from 12/29/2016 (00:00:00 Z) to 12/26/2016 (00:01:00 Z)
Previous Next [ Day | 3-Days | 7-Days ]
First Last
Prev [ Day | 3-Days | 7-Days ] Next
First Last

Start Time:     :
End Time:     :     
Time (in GMT) :00 :50 :40 :30 :20 :10
Previous Next [ Day | 3-Days | 7-Days ]
First Last
Prev [ Day | 3-Days | 7-Days ] Next
First Last


123 => good data
MM => data is determined as missing
-- => data not received/configured
Back to Top Back to Top
12/29/2016 00:00 to 23:10 25.46 25.44 25.59 25.46 25.43 25.35
12/28/2016 23:00 to 22:10 25.37 25.34 25.51 25.39 25.33 25.41
12/28/2016 22:00 to 21:10 25.30 25.29 25.23 25.23 25.24 25.19
12/28/2016 21:00 to 20:10 25.17 25.11 25.10 25.12 25.26 25.26
12/28/2016 20:00 to 19:10 25.26 25.45 25.22 25.31 25.25 25.26
12/28/2016 19:00 to 18:10 25.28 25.22 25.34 25.31 25.33 25.31
12/28/2016 18:00 to 17:10 25.46 25.42 25.19 25.37 25.28 25.16
12/28/2016 17:00 to 16:10 25.26 25.35 25.31 25.29 25.23 25.20
12/28/2016 16:00 to 15:10 25.04 24.97 25.01 24.79 24.82 24.85
12/28/2016 15:00 to 14:10 24.79 24.73 24.85 24.79 24.79 24.77
12/28/2016 14:00 to 13:10 24.82 24.81 24.85 24.74 24.79 24.96
12/28/2016 13:00 to 12:10 24.82 24.89 24.73 24.79 24.81 24.71
12/28/2016 12:00 to 11:10 24.87 24.75 24.73 24.85 24.75 24.78
12/28/2016 11:00 to 10:10 24.83 24.82 24.77 24.80 24.78 24.84
12/28/2016 10:00 to 9:10 24.89 24.80 24.99 25.02 24.97 24.99
12/28/2016 09:00 to 8:10 25.00 24.97 24.93 24.89 24.99 25.07
12/28/2016 08:00 to 7:10 25.02 25.01 25.06 25.05 24.97 25.04
12/28/2016 07:00 to 6:10 25.07 25.05 25.05 25.18 25.11 25.09
12/28/2016 06:00 to 5:10 25.13 25.11 25.09 25.03 25.16 24.95
12/28/2016 05:00 to 4:10 25.09 25.13 25.09 25.07 24.98 25.11
12/28/2016 04:00 to 3:10 25.06 25.09 25.13 25.13 25.10 25.04
12/28/2016 03:00 to 2:10 25.19 25.26 25.30 25.37 25.38 25.37
12/28/2016 02:00 to 1:10 25.32 25.41 25.38 25.43 25.27 25.27
12/28/2016 01:00 to 0:10 25.16 25.19 25.23 25.26 25.20 25.18
12/28/2016 00:00 to 23:10 25.23 25.14 25.17 25.23 25.16 25.19
12/27/2016 23:00 to 22:10 25.11 25.12 25.15 25.11 25.13 25.10
12/27/2016 22:00 to 21:10 25.10 25.13 25.17 25.15 25.16 25.20
12/27/2016 21:00 to 20:10 25.12 25.20 25.22 25.19 25.12 25.11
12/27/2016 20:00 to 19:10 25.08 24.99 25.11 25.21 25.21 25.14
12/27/2016 19:00 to 18:10 25.13 25.19 25.04 25.20 25.31 25.38
12/27/2016 18:00 to 17:10 25.30 25.24 25.37 25.43 25.22 25.02
12/27/2016 17:00 to 16:10 25.05 24.96 25.02 25.30 24.87 25.06
12/27/2016 16:00 to 15:10 25.01 24.90 24.97 24.82 24.79 24.78
12/27/2016 15:00 to 14:10 -- -- -- -- -- --
12/27/2016 14:00 to 13:10 24.78 24.87 24.86 24.79 24.80 24.72
12/27/2016 13:00 to 12:10 24.79 24.77 24.74 24.66 24.81 24.74
12/27/2016 12:00 to 11:10 24.73 24.77 24.71 24.84 24.84 24.77
12/27/2016 11:00 to 10:10 24.80 24.86 24.78 24.83 24.93 24.86
12/27/2016 10:00 to 9:10 25.08 25.00 25.07 25.10 25.14 25.17
12/27/2016 09:00 to 8:10 25.14 25.13 25.16 25.19 25.14 25.28
12/27/2016 08:00 to 7:10 25.26 25.25 25.26 25.19 25.17 25.16
12/27/2016 07:00 to 6:10 25.05 25.06 25.15 25.10 25.09 25.11
12/27/2016 06:00 to 5:10 25.11 25.30 25.15 25.20 25.26 25.17
12/27/2016 05:00 to 4:10 25.13 25.24 25.28 25.24 25.21 25.25
12/27/2016 04:00 to 3:10 25.24 25.21 25.21 25.24 25.28 25.36
12/27/2016 03:00 to 2:10 25.29 25.38 25.40 25.39 25.47 25.42
12/27/2016 02:00 to 1:10 25.38 25.33 25.41 25.38 25.38 25.42
12/27/2016 01:00 to 0:10 25.40 25.39 25.37 25.36 25.37 25.31
12/27/2016 00:00 to 23:10 25.43 25.41 25.46 25.38 25.34 25.30
12/26/2016 23:00 to 22:10 25.25 25.31 25.32 25.28 25.37 25.27
12/26/2016 22:00 to 21:10 25.29 25.26 25.37 25.32 25.26 25.31
12/26/2016 21:00 to 20:10 25.23 25.28 25.35 25.32 25.32 25.37
12/26/2016 20:00 to 19:10 25.35 25.32 25.38 25.41 25.39 25.39
12/26/2016 19:00 to 18:10 25.28 25.28 25.38 25.33 25.32 25.44
12/26/2016 18:00 to 17:10 25.26 25.41 25.25 25.26 25.35 25.23
12/26/2016 17:00 to 16:10 25.49 25.26 25.12 25.07 25.18 25.08
12/26/2016 16:00 to 15:10 24.88 24.83 24.64 24.67 24.75 24.63
12/26/2016 15:00 to 14:10 24.64 24.76 24.74 24.70 24.72 24.75
12/26/2016 14:00 to 13:10 24.60 24.72 24.68 24.68 24.63 24.68
12/26/2016 13:00 to 12:10 24.57 24.63 24.52 24.68 24.62 24.58
12/26/2016 12:00 to 11:10 24.71 24.71 24.60 24.64 24.67 24.73
12/26/2016 11:00 to 10:10 24.67 24.73 24.74 24.76 24.78 24.87
12/26/2016 10:00 to 9:10 24.81 24.82 24.90 24.96 24.85 24.98
12/26/2016 09:00 to 8:10 24.87 24.97 24.89 24.96 24.97 24.92
12/26/2016 08:00 to 7:10 25.01 24.99 24.98 25.00 25.08 24.99
12/26/2016 07:00 to 6:10 25.02 25.16 25.07 25.07 25.12 25.17
12/26/2016 06:00 to 5:10 25.10 25.09 25.16 25.09 25.11 25.01
12/26/2016 05:00 to 4:10 25.16 25.08 25.13 25.16 25.15 25.14
12/26/2016 04:00 to 3:10 25.13 25.16 25.23 25.28 25.37 25.43
12/26/2016 03:00 to 2:10 25.45 25.52 25.57 25.70 25.66 25.72
12/26/2016 02:00 to 1:10 25.68 25.64 25.56 25.70 25.63 25.60
12/26/2016 01:00 to 0:10 25.52 25.46 25.40 25.32 25.43 25.33